Location: Haliburton Scout Reserve
(45.0900°N, 78.3200°W)
Time: 17:30:14
(UTC-04:00)

Courier 1B Rocket - Pass Details

Date: 10 February 2023
Orbit: 920 x 1202 km, 28.2° (Epoch: 22 March)

Event Time Altitude Azimuth Distance (km) Brightness Sun altitude
Rises 14:26:43 0° 227° (SW) 3,790 9.3 24.8°
Reaches altitude 10° 14:30:38 10° 207° (SSW) 2,777 9.3 24.4°
Maximum altitude 14:34:27 16° 172° (S) 2,319 7.9 24.1°
Drops below altitude 10° 14:38:09 10° 137° (SE) 2,679 7.5 23.7°
Sets 14:41:50 0° 116° (ESE) 3,587 7.9 23.3°
